Location: Arcizac
(43.0933°N, 0.0112°E)
Time: 01:05:26
(UTC+00:00)

Cosmos 1666 - Pass Details

Date: 14 December 2019
Orbit: 498 x 521 km, 82.5° (Epoch: 27 January)

Event Time Altitude Azimuth Distance (km) Brightness Sun altitude
Rises 17:25:22 0° 350° (N) 2,602 6.1 -10.6°
Reaches altitude 10° 17:27:30 10° 348° (NNW) 1,712 5.2 -11.0°
Maximum altitude 17:31:14 75° 263° (W) 520 2.8 -11.6°
Drops below altitude 10° 17:34:56 10° 178° (S) 1,696 5.6 -12.2°
Sets 17:37:02 0° 177° (S) 2,575 6.5 -12.6°
